Flag for U.S.A. Weather past 2 weeks in Austin, Texas, U.S.A.

Now
82 °F

Clear.


Feels Like: 85 °F
Forecast: 73 / 97 °F
Wind: 3 mph from North

Location: Camp Mabry / Austin City

Current Time: Jul 24, 2014 at 1:14:54 AM

Latest Report: Jul 24, 2014 at 12:51 AM


Visibility: 10 mi

Pressure: 30.00 "Hg

Humidity: 65%

Dew point: 69 °F

Location of AustinLocation

Historic Weather in Austin — Graph

°F

Austin temperature yesterday

Maximum temperature yesterday: 96 °F (at 4:51 PM)
Minimum temperature yesterday: 75 °F (at 6:51 AM)
Average temperature yesterday: 88 °F

Past Weeks' High & Low Weather Summary

 TemperatureHumidityPressure
High101 °F (Jul 14, 2:51 PM)100% (Jul 18, 12:51 AM)30.15 "Hg (Jul 18, 12:51 AM)
Low70 °F (Jul 19, 6:51 AM)26% (Jul 12, 2:51 PM)29.76 "Hg (Jul 17, 5:51 PM)
Average83 °F67%29.98 "Hg
* Reported Jul 8 11:51 PM — Jul 23 11:51 PM, Austin, Weather by CustomWeather, © 2014

Note: Actual official high and low records may vary slightly from our data, if they occured in-between our weather recording intervals... More about our weather records

Advertising

Austin weather history for previous 24 hours

 ConditionsComfort  
Time TempWeatherWind HumidityBarometerVisibility
11:51 PM
Jul 23
83 °FClear.6 mph61%30.00 "Hg10 mi
10:51 PM85 °FClear.6 mph59%30.01 "Hg10 mi
9:51 PM87 °FClear.6 mph51%29.99 "Hg10 mi
8:51 PM88 °FSunny.3 mph52%29.96 "Hg10 mi
7:51 PM91 °FSunny.3 mph47%29.94 "Hg10 mi
6:51 PM94 °FSunny.6 mph41%29.94 "Hg10 mi
5:51 PM95 °FSunny.5 mph39%29.93 "Hg10 mi
4:51 PM96 °FSunny.7 mph38%29.95 "Hg10 mi
3:51 PM95 °FSunny.No wind43%29.97 "Hg9 mi
2:51 PM95 °FPassing clouds.No wind44%30.00 "Hg10 mi
1:51 PM95 °FScattered clouds.6 mph44%30.01 "Hg10 mi
12:51 PM89 °FBroken clouds.No wind55%30.02 "Hg10 mi
11:51 AM93 °FScattered clouds.3 mph56%30.03 "Hg10 mi
10:51 AM89 °FSunny.3 mph63%30.04 "Hg10 mi
9:51 AM86 °FSunny.No wind67%30.05 "Hg9 mi
8:51 AM83 °FSunny.3 mph74%30.05 "Hg7 mi
7:51 AM78 °FFog.No wind87%30.03 "Hg6 mi
6:51 AM75 °FFog.No wind90%30.03 "Hg6 mi
5:51 AM76 °FClear.No wind91%30.01 "Hg8 mi
4:51 AM78 °FClear.No wind84%30.00 "Hg9 mi
Weather by CustomWeather, © 2014

See weather overviewHow to use our weather pages